Mazatlan - G. Buelna, Mexico

4:15 PM MDT on August 27, 2016 (GMT -0600)
Gen Rafael Buelna International

Weather History for MMMZ - October, 2013

Change the Weather History Date:

Saturday, October 19, 2013

  Actual Average Record
Temperature  
Mean Temperature 80 °F -  
Max Temperature 90 °F 86 °F 92 °F (2015)
Min Temperature 69 °F 69 °F 64 °F (2010)
Cooling Degree Days 14    
Growing Degree Days 30 (Base 50)    
Moisture  
Dew Point 70 °F    
Average Humidity 72    
Maximum Humidity 88    
Minimum Humidity 51    
Precipitation  
Precipitation 0.00 in - - ()
Sea Level Pressure  
Sea Level Pressure 29.84 in    
Wind  
Wind Speed 5 mph ()    
Max Wind Speed 10 mph    
Max Gust Speed -    
Visibility 11.8 miles    
Events      
Averages and records for this station are not official NWS values.
T = Trace of Precipitation, MM = Missing Value Source: Averaged Metar Reports

Daily Weather History Graph

Daily Weather History Graph

Search for Another Location

Airport or City:

Trip Planner

Search our weather history database for the weather conditions in past years. The results will help you decide how hot, cold, wet, or windy it might be!

Date:

Astronomy

Oct. 19, 2013 Rise Set
Actual Time 7:03 AM MDT 6:35 PM MDT
Civil Twilight 6:41 AM MDT 6:58 PM MDT
Nautical Twilight 6:14 AM MDT 7:24 PM MDT
Astronomical Twilight 5:48 AM MDT 7:51 PM MDT
Moon 7:14 PM MDT (10/19) 7:37 AM MDT (10/19)
Length of Visible Light 12h 17m
Length of Day
11h 31m
Full, 99% of the Moon is Illuminated
Oct 19
Full
Oct 26
Last Quarter
Nov 3
New
Nov 9
First Quarter
Nov 17
Full

Hourly Weather History & Observations

Time (MDT) Temp. Heat Index Dew Point Humidity Pressure Visibility Wind Dir Wind Speed Gust Speed Precip Events Conditions
12:00 AM 80 °F - 71 °F 67% 29.86 in - NW 2.2 mph - -  
12:42 AM 71.6 °F - 66.2 °F 83% 29.84 in 10.0 mi NNE 6.9 mph - N/A   Clear
1:43 AM 71.6 °F - 66.2 °F 83% 29.82 in 10.0 mi Calm Calm - N/A   Clear
2:44 AM 69.8 °F - 66.2 °F 88% 29.82 in 10.0 mi East 4.6 mph - N/A   Clear
3:00 AM 78 °F - 72 °F 78% 29.83 in - North 2.2 mph - -  
3:41 AM 69.8 °F - 66.2 °F 88% 29.81 in 10.0 mi NNE 5.8 mph - N/A   Clear
4:41 AM 69.8 °F - 66.2 °F 88% 29.81 in 10.0 mi North 8.1 mph - N/A   Clear
5:45 AM 69.8 °F - 66.2 °F 88% 29.82 in 8.0 mi North 6.9 mph - N/A   Clear
6:00 AM 76 °F - 73 °F 86% 29.83 in - North 2.2 mph - -  
6:42 AM 69.8 °F - 66.2 °F 88% 29.84 in 10.0 mi NNE 5.8 mph - N/A   Clear
7:44 AM 73.4 °F - 64.4 °F 73% 29.86 in 10.0 mi Calm Calm - N/A   Clear
8:41 AM 78.8 °F - 69.8 °F 74% 29.86 in 12.0 mi North 8.1 mph - N/A   Clear
9:00 AM 87 °F - 73 °F 56% 29.88 in - East 2.2 mph - -  
9:41 AM 82.4 °F 87.2 °F 71.6 °F 70% 29.88 in 12.0 mi SE 4.6 mph - N/A   Clear
10:43 AM 84.2 °F 88.4 °F 69.8 °F 62% 29.89 in 15.0 mi East 8.1 mph - N/A   Clear
11:52 AM 87.8 °F 92.6 °F 69.8 °F 55% 29.88 in 15.0 mi SW 8.1 mph - N/A   Clear
12:00 PM 89 °F - 75 °F 55% 29.90 in - SW 4.5 mph - -  
12:42 PM 87.8 °F 92.6 °F 69.8 °F 55% 29.86 in 15.0 mi SSW 8.1 mph - N/A   Clear
1:41 PM 87.8 °F 92.6 °F 69.8 °F 55% 29.84 in 15.0 mi SW 9.2 mph - N/A   Clear
2:46 PM 87.8 °F 92.6 °F 69.8 °F 55% 29.82 in 15.0 mi WSW 10.4 mph - N/A   Clear
3:00 PM 90 °F - 74 °F 51% 29.84 in - WSW 6.7 mph - -  
3:42 PM 87.8 °F 92.6 °F 69.8 °F 55% 29.81 in 15.0 mi SW 9.2 mph - N/A   Clear
4:46 PM 86.0 °F 90.4 °F 69.8 °F 58% 29.81 in 15.0 mi SW 9.2 mph - N/A   Clear
5:41 PM 82.4 °F 86.3 °F 69.8 °F 66% 29.83 in 15.0 mi WSW 10.4 mph - N/A   Clear
6:00 PM 86 °F - 74 °F 61% 29.82 in - West 6.7 mph - -  
6:43 PM 78.8 °F - 69.8 °F 74% 29.80 in 12.0 mi West 8.1 mph - N/A   Clear
7:45 PM 77.0 °F - 69.8 °F 78% 29.82 in 10.0 mi NW 8.1 mph - N/A   Clear
8:41 PM 75.2 °F - 69.8 °F 83% 29.84 in 10.0 mi NNW 8.1 mph - N/A   Clear
9:00 PM 83 °F - 74 °F 67% 29.85 in - NNW 4.5 mph - -  
9:50 PM 73.4 °F - 68.0 °F 83% 29.84 in 10.0 mi Calm Calm - N/A   Clear
10:45 PM 73.4 °F - 69.8 °F 88% 29.85 in 10.0 mi Calm Calm - N/A   Clear
11:44 PM 71.6 °F - 68.0 °F 88% 29.86 in 10.0 mi ENE 5.8 mph - N/A   Clear